LEMUR-2-JOHANLORAN (44084 NORAD) Tracking and Keplerian Element Data

This shows tracking and keplerian element data for the satellite.

Feedback or suggestion? Click here.




ElementValue
Catalog44084
NameLEMUR-2-JOHANLORAN
Epoch Orbit432
Epoch Day119.75142437
Epoch Year2019
RAAN180.059
Inclination97.4612
Eccentricity0.0014069
Argument of Perigee175.1309
Mean Anonmoly185.0066
Mean Motion15.21454678
Decay Rate1.806E-05
L11 44084U 19018G 19119.75142437 .00001806 00000-0 83310-4 0 9997
L22 44084 97.4612 180.0590 0014069 175.1309 185.0066 15.21454678 4328

Live tracking and technical data element details for LEMUR-2-JOHANLORAN (NORAD 44084). LEMUR-2-JOHANLORAN can be tracked NOW for your location showing map with azimuth and elevation plus other details from your city location.

Track the satellite on the map from your city or location and see movement details for azimuth, elevation, latitude, longitude, range, height, and movement on the map or in text.







IsCatalogInMostPopularTable: catalog: 44084, numindb: 29
Update: records affected: 1



GetName: 44084 LEMUR-2-JOHANLORAN

Hit Count: updated at: Mon, 22 Jul 2019 04:15:12 GMT